Location: Rounton
(54.4000°N, 1.3500°W)
Time: 08:18:47
(UTC+00:00)

Envisat - Pass Details

Date: 24 September 2023
Orbit: 762 x 764 km, 98.3° (Epoch: 07 December)

Event Time Altitude Azimuth Distance (km) Brightness Sun altitude
Rises 04:22:36 0° 19° (NNE) 3,246 7.1 -21.7°
Reaches altitude 10° 04:25:02 10° 26° (NNE) 2,315 6.3 -21.4°
Maximum altitude 04:29:54 43° 98° (E) 1,068 4.1 -20.8°
Drops below altitude 10° 04:34:43 10° 169° (S) 2,299 5.3 -20.2°
Enters shadow 04:35:30 - 172° (S) 2,596 5.5 -20.1°
